User: anonymous   Login
Location: Perryvale
(54.4667°N, 113.3833°W)
Time: 12:30:31
(UTC+00:00)
Language:

SR - Orbit

View from above orbital plane
View from above orbital plane
View from above satellite
View from above satellite

Ground track
Ground track

The orbit data is extracted from the following two-line orbital elements,

1 00046U 60007B   24138.40429878  .00001891  00000-0  38412-3 0  9993
2 00046  66.6874 138.4502 0198258 145.9421 215.4600 14.51888791346420
Epoch (UTC): 17 May 2024 09:42:11
Eccentricity: 0.0198258
inclination: 66.6874°
perigee height: 579 km
apogee height: 860 km
right ascension of ascending node: 138.4502°
argument of perigee: 145.9421°
revolutions per day: 14.51888791
mean anomaly at epoch: 215.4600°
orbit number at epoch: 34642

The dashed part of the orbit path shows where the satellite is in the earth's shadow,  

DLR